KD2GO Weather Reports


Display with metric or nautical units.
time (UTC)temp
F
wind
direction
speed
MPH
gust
MPH
rain 1hr
in
rain 24hr
in
rain mn
in
humidity
%
barometer
mb
20260502123000 45 288 3.0 11.0 0.00 0.01 0.01 86 1012.3
20260502121500 45 241 3.0 9.0 0.00 0.01 0.01 85 1012.1
20260502113000 45 304 3.0 7.0 0.00 0.01 0.01 72 1011.7
20260502111500 46 248 3.0 6.0 0.00 0.01 0.01 68 1011.8
20260502110001 45 239 2.0 4.0 0.00 0.01 0.01 68 1011.5
20260502104501 45 236 2.0 4.0 0.00 0.01 0.01 67 1011.4
20260502102959 44 345 1.0 2.0 0.00 0.01 0.01 70 1011.4
20260502091500 45 316 1.0 2.0 0.00 0.01 0.01 81 1010.8
20260502065959 48 303 3.0 7.0 0.00 0.00 0.00 84 1011.0
20260502064459 49 255 4.0 9.0 0.00 0.00 0.00 83 1011.3
20260502062958 50 285 3.0 9.0 0.00 0.00 0.00 80 1011.4
20260502061500 50 271 2.0 10.0 0.00 0.00 0.00 79 1011.5
20260502060001 50 327 2.0 4.0 0.00 0.00 0.00 77 1011.6
20260502054500 50 268 2.0 4.0 0.00 0.00 0.00 77 1011.5
20260502053001 50 330 1.0 3.0 0.00 0.00 0.00 78 1011.6
20260502051456 50 330 1.0 2.0 0.00 0.00 0.00 77 1011.5
20260502045959 50 330 0.0 2.0 0.00 0.00 0.00 78 1011.5
20260502044459 50 330 0.0 2.0 0.00 0.00 0.00 77 1011.5
20260502042959 50 330 0.0 0.0 0.00 0.00 0.00 76 1011.3
20260502041500 51 330 0.0 2.0 0.00 0.00 0.00 77 1011.1
20260502040004 51 330 0.0 1.0 0.00 0.00 0.00 76 1011.3
20260502034459 51 330 1.0 2.0 0.00 0.00 0.00 74 1011.3
20260502033000 52 330 0.0 2.0 0.00 0.00 0.00 73 1011.1
20260502031459 52 330 0.0 1.0 0.00 0.00 0.00 72 1011.3
20260502030000 52 330 0.0 2.0 0.00 0.00 0.00 73 1011.3
20260502024459 52 330 1.0 2.0 0.00 0.00 0.00 72 1011.3
20260502022958 52 327 1.0 3.0 0.00 0.00 0.00 72 1011.5
20260502021459 53 328 0.0 2.0 0.00 0.00 0.00 68 1011.4
20260502020002 53 328 2.0 4.0 0.00 0.00 0.00 66 1011.5
20260502014500 54 307 2.0 5.0 0.00 0.00 0.00 63 1011.4
20260502012959 54 323 3.0 8.0 0.00 0.00 0.00 62 1011.3
20260502011500 54 300 1.0 3.0 0.00 0.00 0.00 61 1011.1
20260502004459 54 318 1.0 2.0 0.00 0.08 0.00 62 1010.8
20260502002959 54 318 1.0 2.0 0.00 0.08 0.00 60 1010.6
20260502001459 55 318 0.0 1.0 0.00 0.08 0.00 59 1010.4
20260501234459 56 321 2.0 4.0 0.00 0.15 0.00 52 1010.2
20260501232959 57 327 2.0 5.0 0.00 0.15 0.00 51 1010.1
20260501224458 59 9 3.0 7.0 0.00 0.15 0.00 47 1009.6
20260501222959 60 318 4.0 7.0 0.00 0.15 0.00 46 1009.8
20260501221459 61 320 5.0 12.0 0.00 0.15 0.00 46 1010.1
20260501220001 62 235 4.0 9.0 0.00 0.15 0.00 44 1009.9
20260501214458 62 333 5.0 11.0 0.00 0.15 0.00 44 1009.9
20260501212959 60 347 3.0 6.0 0.00 0.15 0.00 47 1010.0
20260501211459 61 263 4.0 9.0 0.00 0.15 0.00 46 1010.1
20260501210001 61 270 4.0 10.0 0.00 0.15 0.00 47 1010.1
20260501204459 59 344 3.0 7.0 0.00 0.15 0.00 49 1010.2
20260501202959 61 281 4.0 8.0 0.00 0.15 0.00 47 1010.2
20260501195957 60 281 3.0 9.0 0.00 0.15 0.00 46 1010.3
20260501194457 59 356 6.0 13.0 0.00 0.15 0.00 47 1010.5
20260501191459 60 292 4.0 7.0 0.00 0.15 0.00 47 1010.7
20260501184458 60 307 5.0 12.0 0.00 0.15 0.00 52 1011.0
20260501182958 58 124 4.0 7.0 0.00 0.15 0.00 54 1011.1
20260501181458 58 255 3.0 7.0 0.00 0.15 0.00 55 1011.2
20260501180000 57 309 5.0 11.0 0.00 0.15 0.00 57 1011.3
20260501172959 57 293 4.0 9.0 0.00 0.15 0.00 61 1011.5
20260501165957 56 286 3.0 8.0 0.00 0.15 0.00 59 1011.8
20260501164458 54 13 4.0 10.0 0.00 0.15 0.00 60 1012.0
20260501162958 55 300 3.0 11.0 0.00 0.15 0.00 59 1012.2
20260501161457 54 316 3.0 9.0 0.00 0.15 0.00 61 1012.4
20260501160000 53 281 4.0 9.0 0.00 0.15 0.00 61 1012.7
20260501154458 52 50 4.0 9.0 0.00 0.15 0.00 64 1012.9
20260501152959 53 283 3.0 11.0 0.00 0.15 0.00 65 1013.0
20260501150000 51 283 4.0 8.0 0.00 0.15 0.00 66 1012.8
20260501144458 51 224 4.0 11.0 0.00 0.15 0.00 69 1013.1
20260501141457 50 61 3.0 9.0 0.00 0.15 0.00 75 1013.2